Location: Blythe
(33.2930°N, 82.2020°W)
Time: 12:07:09
(UTC-05:00)

Hubble Space Telescope - Visible Passes

Search period start: 07 February 2016 00:00
Search period end: 17 February 2016 00:00
Orbit: 540 x 544 km, 28.5° (Epoch: 06 February)

Date Brightness Start Highest point End Pass type
(mag) Time Alt. Az. Time Alt. Az. Time Alt. Az.
09 Feb 3.4 20:25:31 10° SW 20:26:14 13° SSW 20:26:14 13° SSW visible
10 Feb 2.9 20:15:49 10° SW 20:17:32 20° SSW 20:17:32 20° SSW visible
11 Feb 2.4 20:06:11 10° SW 20:08:47 27° SSW 20:08:47 27° SSW visible
12 Feb 1.9 19:56:36 10° WSW 20:00:00 34° S 20:00:00 34° S visible
13 Feb 1.5 19:47:04 10° WSW 19:50:56 38° S 19:51:13 38° SSE visible
14 Feb 1.5 19:37:33 10° WSW 19:41:28 41° S 19:42:24 35° SE visible
15 Feb 1.5 19:28:04 10° WSW 19:32:00 42° S 19:33:35 29° SE visible
16 Feb 1.5 19:18:36 10° WSW 19:22:33 43° S 19:24:46 22° ESE visible
16 Feb 3.9 20:59:51 10° WSW 21:00:11 12° WSW 21:00:11 12° WSW visible
